Briseno, Mexico

5:06 AM CST on December 06, 2016 (GMT -0600)
Gen Leobardo C Ruiz International

Weather History for MMZC - January, 2013

Change the Weather History Date:

Monday, January 7, 2013

  Actual Average Record
Temperature  
Mean Temperature 52 °F -  
Max Temperature 69 °F 66 °F 75 °F (2009)
Min Temperature 35 °F 32 °F 19 °F (2006)
Degree Days  
Heating Degree Days 13    
Growing Degree Days 2 (Base 50)    
Moisture  
Dew Point 36 °F    
Average Humidity 61    
Maximum Humidity 93    
Minimum Humidity 27    
Precipitation  
Precipitation 0.00 in - - ()
Sea Level Pressure  
Sea Level Pressure 30.18 in    
Wind  
Wind Speed 8 mph ()    
Max Wind Speed 30 mph    
Max Gust Speed 40 mph    
Visibility 9.4 miles    
Events Fog    
Averages and records for this station are not official NWS values.
T = Trace of Precipitation, MM = Missing Value Source: Averaged Metar Reports

Daily Weather History Graph

Daily Weather History Graph

Search for Another Location

Airport or City:

Trip Planner

Search our weather history database for the weather conditions in past years. The results will help you decide how hot, cold, wet, or windy it might be!

Date:

Astronomy

Jan. 07, 2013 Rise Set
Actual Time 7:33 AM CST 6:21 PM CST
Civil Twilight 7:08 AM CST 6:45 PM CST
Nautical Twilight 6:40 AM CST 7:13 PM CST
Astronomical Twilight 6:13 AM CST 7:41 PM CST
Moon 3:06 AM CST (1/7) 2:28 PM CST (1/7)
Length of Visible Light 11h 37m
Length of Day
10h 48m
Waning Crescent, 22% of the Moon is Illuminated
Jan 7
Waning Crescent
Jan 11
New
Jan 18
First Quarter
Jan 26
Full
Feb 3
Last Quarter

Hourly Weather History & Observations

Time (CST) Temp. Windchill Dew Point Humidity Pressure Visibility Wind Dir Wind Speed Gust Speed Precip Events Conditions
12:42 AM 44.6 °F - 39.2 °F 81% 30.26 in 20.0 mi Calm Calm - N/A   Scattered Clouds
1:43 AM 42.8 °F - 35.6 °F 76% 30.28 in 10.0 mi Calm Calm - N/A   Scattered Clouds
2:43 AM 39.2 °F - 37.4 °F 93% 30.25 in 10.0 mi Calm Calm - N/A   Clear
3:43 AM 37.4 °F - 33.8 °F 87% 30.22 in 10.0 mi Calm Calm - N/A   Clear
4:47 AM 37.4 °F 32.8 °F 33.8 °F 87% 30.20 in 0.2 mi SSE 5.8 mph - N/A Fog Fog
5:04 AM 37.4 °F - 33.8 °F 87% 30.20 in 3.0 mi Calm Calm - N/A   Clear
5:24 AM 37.4 °F - 33.8 °F 87% 30.20 in 6.0 mi Calm Calm - N/A   Clear
5:43 AM 35.6 °F 30.7 °F 33.8 °F 93% 30.20 in 6.0 mi SSW 5.8 mph - N/A   Clear
6:45 AM 37.4 °F 32.1 °F 33.8 °F 87% 30.21 in 10.0 mi South 6.9 mph - N/A   Clear
7:48 AM 37.4 °F 33.8 °F 33.8 °F 87% 30.23 in 10.0 mi South 4.6 mph - N/A   Clear
8:45 AM 42.8 °F 41.1 °F 39.2 °F 87% 30.25 in 10.0 mi South 3.5 mph - N/A   Clear
9:44 AM 51.8 °F - 39.2 °F 62% 30.26 in 10.0 mi SW 12.7 mph - N/A   Clear
10:44 AM 59.0 °F - 37.4 °F 45% 30.25 in 10.0 mi SSW 20.7 mph - N/A   Scattered Clouds
11:44 AM 62.6 °F - 39.2 °F 42% 30.22 in 10.0 mi SW 17.3 mph 28.8 mph N/A   Scattered Clouds
1:24 PM 66.2 °F - 37.4 °F 35% 30.14 in 10.0 mi SW 23.0 mph 34.5 mph N/A   Mostly Cloudy
1:43 PM 69.8 °F - 35.6 °F 28% 30.13 in 10.0 mi SW 23.0 mph 40.3 mph N/A   Mostly Cloudy
2:41 PM 69.8 °F - 33.8 °F 27% 30.11 in 10.0 mi SW 24.2 mph 38.0 mph N/A   Mostly Cloudy
3:40 PM 69.8 °F - 33.8 °F 27% 30.11 in 10.0 mi SW 23.0 mph 36.8 mph N/A   Scattered Clouds
4:45 PM 66.2 °F - 33.8 °F 30% 30.10 in 10.0 mi SW 29.9 mph - N/A   Mostly Cloudy
5:46 PM 62.6 °F - 33.8 °F 34% 30.11 in 10.0 mi WSW 26.5 mph - N/A   Scattered Clouds
6:47 PM 60.8 °F - 35.6 °F 39% 30.12 in 10.0 mi SW 17.3 mph - N/A   Scattered Clouds
7:51 PM 57.2 °F - 37.4 °F 48% 30.14 in 10.0 mi SW 12.7 mph - N/A   Scattered Clouds
8:46 PM 57.2 °F - 39.2 °F 51% 30.14 in 10.0 mi WSW 11.5 mph - N/A   Scattered Clouds
10:47 PM 53.6 °F - 39.2 °F 58% 30.14 in 10.0 mi SW 16.1 mph - N/A   Scattered Clouds
11:48 PM 55.4 °F - 41.0 °F 58% 30.12 in 10.0 mi SW 17.3 mph - N/A   Scattered Clouds